User: anonymous   Login
Location: Caltech
(34.1382°N, 118.1253°W)
Time: 06:21:10
(UTC-07:00)
Language:

Lacrosse 5 - Orbit

View from above orbital plane
View from above orbital plane
View from above satellite
View from above satellite

Ground track
Ground track

The orbit data is extracted from the following two-line orbital elements,

1 28646U 05016A   16237.84675560 0.00000000  00000-0  00000-0 0    01
2 28646  57.0130 151.9574 0004500 112.2883 247.7116 14.51933232    01
Epoch (UTC): 24 August 2016 20:19:19
Eccentricity: 0.0004500
inclination: 57.0130°
perigee height: 716 km
apogee height: 722 km
right ascension of ascending node: 151.9574°
argument of perigee: 112.2883°
revolutions per day: 14.51933232
mean anomaly at epoch: 247.7116°
orbit number at epoch: 0

The dashed part of the orbit path shows where the satellite is in the earth's shadow,  

DLR